TimeCST,TemperatureF,Dew PointF,Humidity,Sea Level PressureIn,VisibilityMPH,Wind Direction,Wind SpeedMPH,Gust SpeedMPH,PrecipitationIn,Events,Conditions,WindDirDegrees,DateUTC
12:53 AM,19.0,10.0,68,30.20,10.0,SW,4.6,-,N/A,,Clear,220,2013-01-16 06:53:00
1:53 AM,19.0,9.0,65,30.18,10.0,SW,5.8,-,N/A,,Clear,220,2013-01-16 07:53:00
3:53 AM,19.9,10.9,68,30.15,10.0,SW,8.1,-,N/A,,Clear,220,2013-01-16 09:53:00
4:53 AM,19.9,10.9,68,30.13,10.0,SW,8.1,-,N/A,,Clear,220,2013-01-16 10:53:00
6:53 AM,19.9,10.9,68,30.10,10.0,SSW,8.1,-,N/A,,Clear,210,2013-01-16 12:53:00
7:53 AM,21.0,10.9,65,30.09,10.0,SSW,9.2,-,N/A,,Clear,210,2013-01-16 13:53:00
8:53 AM,24.1,14.0,65,30.12,10.0,SSW,9.2,-,N/A,,Clear,210,2013-01-16 14:53:00
9:53 AM,30.0,16.0,56,30.11,10.0,SW,13.8,-,N/A,,Clear,220,2013-01-16 15:53:00
10:53 AM,35.1,18.0,50,30.10,10.0,SSW,11.5,-,N/A,,Partly Cloudy,210,2013-01-16 16:53:00
11:53 AM,37.9,17.1,43,30.07,10.0,SW,16.1,-,N/A,,Clear,230,2013-01-16 17:53:00
12:53 PM,39.9,19.0,43,30.04,10.0,SSW,15.0,-,N/A,,Overcast,210,2013-01-16 18:53:00
1:53 PM,42.1,19.0,40,30.05,10.0,WSW,12.7,-,N/A,,Overcast,240,2013-01-16 19:53:00
2:53 PM,44.1,21.9,42,30.06,10.0,WSW,12.7,-,N/A,,Clear,240,2013-01-16 20:53:00
3:53 PM,44.1,23.0,43,30.06,10.0,WSW,11.5,-,N/A,,Clear,250,2013-01-16 21:53:00
4:53 PM,44.1,24.1,45,30.09,10.0,WSW,8.1,-,N/A,,Clear,240,2013-01-16 22:53:00
5:53 PM,39.0,24.1,55,30.10,10.0,SSW,5.8,-,N/A,,Clear,200,2013-01-16 23:53:00
6:53 PM,37.9,24.1,57,30.12,10.0,SSW,4.6,-,N/A,,Clear,210,2013-01-17 00:53:00
7:53 PM,36.0,24.1,62,30.14,10.0,SW,6.9,-,N/A,,Clear,220,2013-01-17 01:53:00
8:53 PM,34.0,23.0,64,30.14,10.0,SW,6.9,-,N/A,,Clear,230,2013-01-17 02:53:00
9:53 PM,35.1,24.1,64,30.14,10.0,WSW,6.9,-,N/A,,Clear,250,2013-01-17 03:53:00
10:53 PM,35.1,25.0,67,30.16,10.0,WNW,5.8,-,N/A,,Clear,290,2013-01-17 04:53:00
11:53 PM,39.0,28.0,65,30.19,10.0,NNW,10.4,-,N/A,,Clear,330,2013-01-17 05:53:00